Regional Weather Roundup
Issued by NWS

Home | Current Version | Previous Version | Graphics & Text | Print | Product List | Glossary On
Versions: 1 2 3 4 5 6 7 8 9 10 11 12 13 14 15 16 17 18 19 20 21 22 23 24 25 26 27 28 29 30 31 32 33 34 35 36 37 38 39 40 41 42 43 44 45 46 47 48 49 50
000
ASUS43 KLSX 271707
RWRMO

WEATHER SUMMARY FOR MISSOURI
NATIONAL WEATHER SERVICE SPRINGFIELD MO
1100 AM CST SAT DEC 27 2014

NOTE: "FAIR" INDICATES FEW OR NO CLOUDS BELOW 12,000 FEET WITH NO
       SIGNIFICANT WEATHER AND/OR OBSTRUCTIONS TO VISIBILITY.
       CURRENT SKY AND/OR WEATHER CONDITIONS ARE NOT AVAILABLE FOR
       CHILLICOTHE AND FARMINGTON.

MOZ001>031-035>038-043-044-053-054-271800-
...NORTHERN AND WESTERN MISSOURI...

CITY           SKY/WX    TMP DP  RH WIND       PRES   REMARKS
KANSAS CTY INT CLOUDY    29  23  78 NW8       30.26R WCI  21
KANSAS C DTWN  CLOUDY    32  23  69 NW13      30.26R WCI  22
LEE`S SUMMIT   CLOUDY    32  25  75 W10       30.26R WCI  24
ST JOSEPH      CLOUDY    29  22  75 NW13      30.27F WCI  19
CHILLICOTHE      N/A     32  26  78 W12G20    30.25S WCI  23
KIRKSVILLE     CLOUDY    34  30  85 W10       30.18S WCI  26

$$
MOZ066>068-077>081-088>096-101>105-271800-
...SOUTHWEST MISSOURI...

CITY           SKY/WX    TMP DP  RH WIND       PRES   REMARKS
SPRINGFIELD    LGT SNOW  33  31  92 NW7       30.24R FOG     WCI  27
JOPLIN         LGT SNOW  31  30  96 N10       30.29F FOG     WCI  22

$$
MOZ032>034-039>042-045>050-055>058-069>072-271800-
...CENTRAL MISSOURI...

CITY           SKY/WX    TMP DP  RH WIND       PRES   REMARKS
COLUMBIA       FLURRIES  36  32  85 W8        30.19F WCI  30
JEFFERSON CITY LGT RAIN  39  31  72 W8        30.21F
ROLLA          LGT RAIN  38  35  89 W7        30.17F FOG
SEDALIA        CLOUDY    36  30  79 W10       30.25R WCI  28
WHITEMAN AFB   PTSUNNY   35  29  80 NW10      30.24R WCI  27
WARRENSBURG    CLOUDY    34  28  80 W7        30.25F WCI  28
OSAGE BEACH    CLOUDY    37  30  75 W7        30.22F

$$
MOZ051-052-059>065-271800-
...EAST CENTRAL MISSOURI...

CITY           SKY/WX    TMP DP  RH WIND       PRES   REMARKS
ST LOUIS INTL  CLOUDY    43  37  79 W16       30.18R
SPIRIT OF STL  CLOUDY    42  36  79 NW10      30.18S
ST CHARLES     CLOUDY    42  35  76 NW14      30.18S

$$
MOZ072>076-082>087-097>100-106>115-271800-
...SOUTH CENTRAL AND SOUTHEAST MISSOURI...

CITY           SKY/WX    TMP DP  RH WIND       PRES   REMARKS
CAPE GIRARDEAU LGT RAIN  49  49 100 VRB3      30.15S FOG
POPLAR BLUFF   CLOUDY    50  48  93 CALM      30.14S FOG
WEST PLAINS    CLOUDY    41  37  86 NW12      30.19F

$$


USA.gov is the U.S. government's official web portal to all federal, state and local government web resources and services.